{"data":{"norad_id":25757,"epoch":"2026-09-19T19:26:53.743200Z","epoch_age_seconds":71012,"freshness":"FRESH","line1":"1 25757U 99029B   26262.81034425  .00000044  00000+0  22726-4 0  9990","line2":"2 25757  98.6773 261.4635 0015232  64.6813 295.5957 14.52445628446980","mean_motion":14.52445628,"eccentricity":0.0015232,"inclination_deg":98.6773,"raan_deg":261.4635,"arg_perigee_deg":64.6813,"mean_anomaly_deg":295.5957,"bstar":2.2726e-5,"rev_number":44698,"period_min":99.143126065439,"perigee_km":706.86369549226,"apogee_km":728.48036812677,"semimajor_km":7095.8090318095,"source":"CELESTRAK","updated_at":"2026-09-20T09:00:33.883877Z"}}